Location: DARK SKY Beskydy - Park tmavé oblohy, www.darkskybeskydy.cz
(49.4926°N, 18.5016°E)
Time: 02:27:39
(UTC+01:00)

X-37B - Pass Details

Date: 10 December 2022
Orbit: 277 x 277 km, 45.0° (Epoch: 01 November)

Event Time Altitude Azimuth Distance (km) Brightness Sun altitude
Rises 16:59:35 0° 222° (SW) 1,905 5.4 -11.2°
Reaches altitude 10° 17:02:02 10° 194° (SSW) 1,096 3.4 -11.6°
Maximum altitude 17:03:27 14° 159° (SSE) 908 2.5 -11.8°
Enters shadow 17:04:40 11° 127° (SE) 1,052 2.5 -12.0°
